Regional Weather Roundup
Issued by NWS

Home | Current Version | Previous Version | Graphics & Text | Print | Product List | Glossary On
Versions: 1 2 3 4 5 6 7 8 9 10 11 12 13 14 15 16 17 18 19 20 21 22 23 24 25 26 27 28 29 30 31 32 33 34 35 36 37 38 39 40 41 42 43 44 45 46 47 48 49 50
412
ASUS45 KTFX 301810
RWRMT
MONTANA REGIONAL WEATHER ROUNDUP
NATIONAL WEATHER SERVICE GREAT FALLS MT
1200 PM MDT SAT APR 30 2016

NOTE: "FAIR" INDICATES FEW OR NO CLOUDS BELOW 12000 FEET WITH NO
SIGNIFICANT WEATHER AND/OR OBSTRUCTIONS TO VISIBILITY.

MTZ001>007-043-301900-
WEST OF THE DIVIDE

CITY           SKY/WX    TMP DP  RH WIND       PRES   REMARKS
KALISPELL      MOSUNNY   60  35  39 N8        30.18F
MISSOULA       CLOUDY    47  39  74 W3        30.22S
BUTTE          LGT RAIN  42  33  70 CALM      30.16R
MULLAN PASS    PTSUNNY   39  33  79 CALM      30.19S
ANACONDA         N/A     45  36  70 NE9G16    30.16S
DEER LODGE       N/A     46  36  66 NW8       30.18F
EUREKA           N/A     55  39  54 NW3       30.22S
HAMILTON         N/A     43  37  81 N5        30.21R
LIBBY            N/A     57  36  44 W7        30.20F
PLAINS           N/A     49  41  74 CALM      30.22R
$$

MTZ008-052>055-301900-
SOUTHWEST MONTANA

CITY           SKY/WX    TMP DP  RH WIND       PRES   REMARKS
BOZEMAN        CLOUDY    48  33  56 VRB3      30.15S
DILLON         CLOUDY    48  32  53 N14       30.11R
ENNIS          PTSUNNY   48  34  57 N20G29    30.15S
THREE FORKS      N/A     48  36  63 MISG      30.13S
TWIN BRIDGES     N/A     48  30  50 N18       30.09R
$$

MTZ009-010-012-014-046-048-049-054-301900-
EAST SLOPES AND CENTRAL MONTANA

CITY           SKY/WX    TMP DP  RH WIND       PRES   REMARKS
CUT BANK       CLOUDY    48  35  60 SE8       30.25R
GREAT FALLS    CLOUDY    51  37  58 VRB3      30.21R
HELENA         CLOUDY    51  34  52 NW8       30.17S
CHOTEAU          N/A     48  37  66 NE6       30.23F
CONRAD           N/A     50  45  83 NE6       30.24R
$$

MTZ011-013-016-021-045-047-050-051-301900-
NORTH CENTRAL MONTANA

CITY           SKY/WX    TMP DP  RH WIND       PRES   REMARKS
HAVRE          CLOUDY    53  39  59 E9        30.25S
LEWISTOWN      CLOUDY    49  33  54 E12       30.22R
N BAR RANCH    CLOUDY    45  32  61 SE12      30.24R
CHINOOK          N/A     54  39  58 NE5       30.25F
$$

MTZ017>020-022>027-061-062-301900-
NORTHEAST MONTANA

CITY           SKY/WX    TMP DP  RH WIND       PRES   REMARKS
GLASGOW        MOSUNNY   58  32  37 E15G23    30.25F
JORDAN           N/A     56  33  42 E10G17    30.21F
SIDNEY         SUNNY     59  30  33 E16       30.25S
WOLF POINT     SUNNY     60  32  34 E13       30.26F
PLENTYWOOD       N/A     57  27  30 E15G21    30.27F
POPLAR           N/A     57  28  33 E14G23    30.26F
SCOBEY           N/A     60  27  28 NE17      30.25F
$$

MTZ028>42-056>058-301900-
SOUTHCENTRAL AND SOUTHEAST MONTANA

CITY           SKY/WX    TMP DP  RH WIND       PRES   REMARKS
BAKER          CLOUDY    52  33  48 E17       30.19S
BILLINGS       CLOUDY    49  35  58 E12       30.19R
LIVINGSTON     CLOUDY    41  34  76 E21       30.16R
MILES CITY     CLOUDY    56  32  40 E12       30.19F
EKALAKA          N/A     53  32  45 NE13      30.14
FORSYTH          N/A     54  32  43 NE12      30.20R
LAUREL           N/A     48  30  50 NE8       30.16R
ROUNDUP          N/A     51  33  50 NE2       30.10S
$$

REGIONAL REPORTS...DAKOTAS

CITY           SKY/WX    TMP DP  RH WIND       PRES   REMARKS
WILLISTON      SUNNY     60  28  29 E14       30.26F
MINOT          MOSUNNY   63  27  25 NE14G29   30.25F
DICKINSON      MOSUNNY   53  31  42 NE18G29   30.18S
BEACH            N/A     55  30  38 E16G23    30.24S
CROSBY           N/A     57  27  30 E13G22    30.31F
WATFORD CITY     N/A     57  27  30 E16G24    30.25S
BISMARCK       PTSUNNY   57  31  37 E23G35    30.21S
GRAND FORKS    MOSUNNY   59  29  31 NE24G33   30.23F
FARGO          SUNNY     61  28  28 NE23G32   30.16F
BUFFALO SD       N/A     53  33  46 E20G28    30.09S
RAPID CITY     CLOUDY    44  39  82 NE13      30.09S
$$

REGIONAL REPORTS...WYOMING/IDAHO/WASHINGTON

CITY           SKY/WX    TMP DP  RH WIND       PRES   REMARKS
GILLETTE       CLOUDY    46  36  68 NE17      30.13R
SHERIDAN       CLOUDY    42  35  76 CALM      30.18S
BUFFALO WY       N/A    N/A N/A N/A MISG      30.17R
CODY           CLOUDY    45  36  70 N20G25    30.12S
YELLOWSTONE LA   N/A     40  24  53 VRB5      30.09S
IDAHO FALLS    MOSUNNY   54  33  45 NE15G21   30.03S
SALMON         CLOUDY    48  32  53 N6        30.12R
BOISE          SUNNY     62  35  36 NW21G28   30.04F
SPOKANE        PTSUNNY   52  43  71 N3        30.23R
$$

REGIONAL REPORTS...ALBERTA

CITY           SKY/WX    TMP DP  RH WIND       PRES   REMARKS
EDMONTON       MOSUNNY   61  34  36 S16       30.21F
CALGARY        PTSUNNY   52  32  46 W5        30.26S
LETHBRIDGE     PTSUNNY   55  36  47 VRB8      30.25R
MEDICINE HAT   CLOUDY    55  37  50 W8        30.26S
WATERTON GATE    N/A     54  32  43 NE7         N/A
MILK RIVER       N/A     50  36  57 SE5         N/A
$$

REGIONAL REPORTS...SASKATCHEWAN

CITY           SKY/WX    TMP DP  RH WIND       PRES   REMARKS
SWIFT CURRENT  SUNNY     59  27  29 SE13G23   30.27F
REGINA         MOSUNNY   61  25  25 SE12G20   30.31F
SASKATOON      MOSUNNY   64  23  20 S12G17    30.32F
CYPRESS HILLS    N/A     50  28  43 SE10        N/A
VAL MARIE        N/A     57  30  35 E12G17      N/A
ROCKGLEN         N/A     57  25  28 E9G18       N/A
$$




USA.gov is the U.S. government's official web portal to all federal, state and local government web resources and services.